Flag for Germany Weather past 2 weeks in Friesoythe, Lower Saxony, Germany

Now
66 °F

Mild.


Feels Like: 66 °F
Forecast: 47 / 56 °F
Wind: 6 mph from West

Location: Meppen-Mil

Current Time: May 24, 2015 at 8:26:33 PM

Latest Report: May 24, 2015 at 7:20 PM


Visibility: 6 mi

Pressure: 30.01 "Hg

Humidity: 32%

Dew point: 36 °F

Location of FriesoytheLocation

Historic Weather in Friesoythe — Graph

°F

Friesoythe temperature yesterday

Maximum temperature yesterday: 59 °F (at 3:20 PM)
Minimum temperature yesterday: 45 °F (at 11:20 PM)
Average temperature yesterday: 54 °F

Past Weeks' High & Low Weather Summary

 TemperatureHumidityPressure
High79 °F (May 11, 4:20 PM)100% (May 16, 5:20 AM)30.33 "Hg (May 16, 5:20 AM)
Low34 °F (May 16, 4:20 AM)24% (May 24, 6:20 PM)29.56 "Hg (May 19, 5:20 AM)
Average53 °F68%30.06 "Hg
* Reported May 9 7:20 PM — May 24 7:20 PM, Friesoythe, Weather by CustomWeather, © 2015

Note: Actual official high and low records may vary slightly from our data, if they occured in-between our weather recording intervals... More about our weather records

Advertising

Friesoythe weather history for previous 24 hours

 ConditionsComfort  
Time TempWeatherWind HumidityBarometerVisibility
7:20 PM
Sun, May 24
66 °FMild.6 mph32%30.01 "Hg6 mi
6:20 PM68 °FMild.7 mph24%30.01 "Hg6 mi
5:20 PM66 °FMild.5 mph30%30.04 "Hg5 mi
4:20 PM66 °FMild.6 mph32%30.07 "Hg5 mi
3:20 PM64 °FMild.7 mph26%30.07 "Hg5 mi
2:20 PM64 °FMild.6 mph37%30.09 "Hg5 mi
1:20 PM63 °FMild.6 mph45%30.09 "Hg4 mi
12:20 PM59 °FRefreshingly cool.6 mph51%30.12 "Hg4 mi
11:20 AM57 °FRefreshingly cool.5 mph55%30.12 "Hg4 mi
10:20 AM54 °FCool.3 mph63%30.12 "Hg4 mi
9:20 AM52 °FCool.5 mph67%30.15 "Hg4 mi
8:20 AM48 °FCool.5 mph76%30.15 "Hg5 mi
7:20 AM41 °FQuite cool.2 mph100%30.15 "Hg5 mi
6:20 AM34 °FChilly.1 mph100%30.15 "Hg3 mi
5:20 AM34 °FChilly.1 mph93%30.15 "Hg1 mi
4:20 AM36 °FChilly.No wind93%30.15 "Hg1 mi
3:20 AM37 °FChilly.1 mph93%30.18 "Hg1 mi
2:20 AM39 °FChilly.1 mph93%30.18 "Hg4 mi
1:20 AM39 °FChilly.1 mph93%30.18 "Hg5 mi
12:20 AM43 °FQuite cool.3 mph81%30.18 "Hg6 mi
11:20 PM
Sat, May 23
45 °FQuite cool.3 mph81%30.21 "Hg6 mi
10:20 PM46 °FCool.3 mph76%30.21 "Hg5 mi
9:20 PM50 °FCool.6 mph67%30.18 "Hg5 mi
8:20 PM54 °FCool.6 mph58%30.18 "Hg5 mi
Weather by CustomWeather, © 2015

See weather overviewHow to use our weather pages